Tracking 31032 objects as of 13-Jul-2025
HD Live streaming from Space Station
objects crossing your sky now

STARLINK-34253

Track STARLINK-34253 now!
10-day predictions
STARLINK-34253 is classified as:


NORAD ID: 64685
Int'l Code: 2025-139X
Perigee: 376.2 km
Apogee: 377.7 km
Inclination: 53.2 °
Period: 91.9 minutes
Semi major axis: 6747 km
RCS: Unknown
Launch date: June 28, 2025
Source: United States (US)
Launch site: AIR FORCE EASTERN TEST RANGE (AFETR)
Your satellite tracking list
Your tracking list is empty




NASA's NSSDC Master Catalog

Two Line Element Set (TLE):
1 64685U 25139X   25194.58335648 -.02112277  00000-0 -23045-1 0  9991
2 64685  53.1596 162.2413 0001138  86.6633 194.2915 15.66190115  3621
Source of the keplerian elements: AFSPC